Meteo pe oră la Dabrowka

Astăzi, 11 Aprilie, Duminică

Timp Temperatura Precipitaţii Vânt Presiune Umiditate
00:00 +9°C° 0 mm 1 m/s 736 mmHg 76%
01:00 +8°C° 0 mm 2 m/s 736 mmHg 76%
02:00 +8°C° 0 mm 2 m/s 736 mmHg 76%
03:00 +7°C° 0 mm 2 m/s 736 mmHg 76%
04:00 +7°C° 0 mm 3 m/s 736 mmHg 77%
05:00 +8°C° 0 mm 3 m/s 736 mmHg 75%
06:00 +7°C° 0 mm 4 m/s 736 mmHg 73%
07:00 +8°C° 0 mm 4 m/s 736 mmHg 71%
08:00 +10°C° 0 mm 4 m/s 736 mmHg 65%
09:00 +12°C° 0 mm 4 m/s 736 mmHg 59%
10:00 +14°C° 0 mm 4 m/s 736 mmHg 52%
11:00 +15°C° 0 mm 5 m/s 736 mmHg 49%
12:00 +16°C° 0 mm 5 m/s 736 mmHg 46%
13:00 +17°C° 0 mm 5 m/s 735 mmHg 42%
14:00 +17°C° 0 mm 5 m/s 735 mmHg 45%
15:00 +17°C° 0 mm 4 m/s 735 mmHg 48%
16:00 +17°C° 0 mm 4 m/s 735 mmHg 50%
17:00 +14°C° 0.1 mm 4 m/s 735 mmHg 57%
18:00 +13°C° 0.1 mm 3 m/s 735 mmHg 63%
19:00 +12°C° 0.1 mm 3 m/s 736 mmHg 70%
20:00 +11°C° 0.1 mm 4 m/s 736 mmHg 72%
21:00 +11°C° 0.1 mm 4 m/s 736 mmHg 74%
22:00 +10°C° 0.1 mm 5 m/s 736 mmHg 76%
23:00 +10°C° 0 mm 4 m/s 736 mmHg 76%

Mâine, 12 Aprilie, Luni

Timp Temperatura Precipitaţii Vânt Presiune Umiditate
00:00 +10°C° 0 mm 4 m/s 736 mmHg 77%
01:00 +10°C° 0 mm 4 m/s 736 mmHg 77%
02:00 +10°C° 0 mm 3 m/s 735 mmHg 78%
03:00 +10°C° 0 mm 3 m/s 735 mmHg 79%
04:00 +9°C° 0 mm 3 m/s 735 mmHg 80%
05:00 +9°C° 0 mm 2 m/s 735 mmHg 80%
06:00 +10°C° 0 mm 2 m/s 735 mmHg 80%
07:00 +10°C° 0 mm 2 m/s 735 mmHg 80%
08:00 +11°C° 0 mm 1 m/s 735 mmHg 78%
09:00 +11°C° 0 mm 1 m/s 736 mmHg 77%
10:00 +12°C° 0 mm 1 m/s 736 mmHg 75%
11:00 +12°C° 0.1 mm 1 m/s 736 mmHg 78%
12:00 +10°C° 0.1 mm 2 m/s 736 mmHg 80%
13:00 +10°C° 0.1 mm 2 m/s 736 mmHg 82%
14:00 +9°C° 0 mm 3 m/s 736 mmHg 84%
15:00 +8°C° 0 mm 4 m/s 737 mmHg 85%
16:00 +7°C° 0 mm 4 m/s 737 mmHg 87%
17:00 +6°C° 0 mm 4 m/s 737 mmHg 87%
18:00 +6°C° 0 mm 4 m/s 738 mmHg 87%
19:00 +5°C° 0 mm 5 m/s 738 mmHg 87%
20:00 +4°C° 0 mm 4 m/s 739 mmHg 89%
21:00 +3°C° 0 mm 4 m/s 739 mmHg 90%
22:00 +3°C° 0 mm 4 m/s 739 mmHg 91%
23:00 +1°C° 0.3 mm 4 m/s 739 mmHg 93%

Poimâine, 13 Aprilie, Marţi

Timp Temperatura Precipitaţii Vânt Presiune Umiditate
00:00 +1°C° 0.3 mm 4 m/s 739 mmHg 94%
01:00 +1°C° 0.3 mm 4 m/s 739 mmHg 95%
02:00 0°C° 1.4 mm 4 m/s 739 mmHg 96%
03:00 0°C° 1.4 mm 4 m/s 740 mmHg 97%
04:00 -1°C° 1.4 mm 4 m/s 740 mmHg 98%
05:00 -1°C° 0.5 mm 5 m/s 740 mmHg 98%
06:00 -1°C° 0.5 mm 5 m/s 740 mmHg 97%
07:00 -1°C° 0.5 mm 5 m/s 740 mmHg 97%
08:00 -1°C° 0.3 mm 5 m/s 741 mmHg 97%
09:00 -1°C° 0.3 mm 5 m/s 741 mmHg 97%
10:00 0°C° 0.3 mm 5 m/s 741 mmHg 97%
11:00 0°C° 0.5 mm 5 m/s 741 mmHg 96%
12:00 0°C° 0.5 mm 5 m/s 741 mmHg 95%
13:00 +1°C° 0.5 mm 5 m/s 740 mmHg 94%
14:00 0°C° 1.4 mm 5 m/s 740 mmHg 94%
15:00 0°C° 1.4 mm 5 m/s 740 mmHg 95%
16:00 0°C° 1.4 mm 5 m/s 740 mmHg 96%
17:00 0°C° 1.2 mm 5 m/s 740 mmHg 96%
18:00 0°C° 1.2 mm 5 m/s 740 mmHg 97%
19:00 -1°C° 1.2 mm 5 m/s 740 mmHg 98%
20:00 -1°C° 0.8 mm 5 m/s 740 mmHg 98%
21:00 -1°C° 0.8 mm 5 m/s 740 mmHg 97%
22:00 -2°C° 0.8 mm 6 m/s 740 mmHg 97%
23:00 -2°C° 0.9 mm 6 m/s 739 mmHg 97%

14 Aprilie, Miercuri

Timp Temperatura Precipitaţii Vânt Presiune Umiditate
00:00 -2°C° 0.9 mm 6 m/s 739 mmHg 97%
01:00 -2°C° 0.9 mm 6 m/s 739 mmHg 98%
02:00 -3°C° 0.9 mm 6 m/s 739 mmHg 98%
03:00 -2°C° 0.9 mm 5 m/s 739 mmHg 98%
04:00 -2°C° 0.9 mm 5 m/s 739 mmHg 98%
05:00 -2°C° 0.7 mm 5 m/s 739 mmHg 98%
06:00 -2°C° 0.7 mm 5 m/s 739 mmHg 98%
07:00 -2°C° 0.7 mm 5 m/s 739 mmHg 99%
08:00 -2°C° 0.4 mm 5 m/s 739 mmHg 99%
09:00 -1°C° 0.4 mm 5 m/s 739 mmHg 99%
10:00 -1°C° 0.4 mm 5 m/s 739 mmHg 99%
11:00 -1°C° 0.3 mm 5 m/s 739 mmHg 98%
12:00 -1°C° 0.3 mm 5 m/s 738 mmHg 98%
13:00 0°C° 0.3 mm 5 m/s 738 mmHg 98%
14:00 0°C° 0.3 mm 5 m/s 738 mmHg 98%
15:00 0°C° 0.3 mm 5 m/s 738 mmHg 98%
16:00 0°C° 0.3 mm 5 m/s 738 mmHg 98%
17:00 0°C° 0.3 mm 4 m/s 738 mmHg 98%
18:00 0°C° 0.3 mm 4 m/s 738 mmHg 98%
19:00 0°C° 0.3 mm 4 m/s 738 mmHg 98%
20:00 0°C° 0.2 mm 4 m/s 737 mmHg 98%
21:00 0°C° 0.2 mm 5 m/s 737 mmHg 98%
22:00 0°C° 0.2 mm 5 m/s 737 mmHg 98%
23:00 0°C° 0.2 mm 5 m/s 737 mmHg 98%

15 Aprilie, Joi

Timp Temperatura Precipitaţii Vânt Presiune Umiditate
00:00 0°C° 0.2 mm 5 m/s 737 mmHg 98%
01:00 -1°C° 0.2 mm 5 m/s 736 mmHg 98%
02:00 -1°C° 0.3 mm 5 m/s 736 mmHg 98%
03:00 -1°C° 0.3 mm 5 m/s 736 mmHg 98%
04:00 -2°C° 0.3 mm 5 m/s 736 mmHg 98%
05:00 -2°C° 0.4 mm 5 m/s 736 mmHg 98%
06:00 -2°C° 0.4 mm 4 m/s 736 mmHg 98%
07:00 -2°C° 0.4 mm 4 m/s 736 mmHg 98%
08:00 -2°C° 0.7 mm 4 m/s 736 mmHg 98%
09:00 -1°C° 0.7 mm 4 m/s 737 mmHg 99%
10:00 0°C° 0.7 mm 3 m/s 737 mmHg 99%
11:00 0°C° 0.4 mm 3 m/s 737 mmHg 99%
12:00 0°C° 0.4 mm 3 m/s 737 mmHg 99%
13:00 0°C° 0.4 mm 3 m/s 737 mmHg 99%
14:00 0°C° 0.1 mm 3 m/s 737 mmHg 99%
15:00 +1°C° 0.1 mm 2 m/s 737 mmHg 99%
16:00 +2°C° 0.1 mm 2 m/s 737 mmHg 99%
17:00 +2°C° 0.2 mm 2 m/s 737 mmHg 99%
18:00 +1°C° 0.2 mm 3 m/s 738 mmHg 99%
19:00 +1°C° 0.2 mm 3 m/s 738 mmHg 99%
20:00 +1°C° 0.1 mm 3 m/s 738 mmHg 99%
21:00 +1°C° 0.1 mm 3 m/s 738 mmHg 99%
22:00 +1°C° 0.1 mm 3 m/s 738 mmHg 99%
23:00 +1°C° 0.1 mm 3 m/s 738 mmHg 99%

16 Aprilie, Vineri

Timp Temperatura Precipitaţii Vânt Presiune Umiditate
00:00 +1°C° 0.1 mm 3 m/s 738 mmHg 99%
01:00 +1°C° 0.1 mm 3 m/s 738 mmHg 98%
02:00 +1°C° 0.1 mm 3 m/s 738 mmHg 98%
03:00 +1°C° 0.1 mm 3 m/s 738 mmHg 98%
04:00 +1°C° 0.1 mm 3 m/s 738 mmHg 98%
05:00 +1°C° 0.2 mm 3 m/s 739 mmHg 98%
06:00 +1°C° 0.2 mm 3 m/s 739 mmHg 98%
07:00 +1°C° 0.2 mm 3 m/s 739 mmHg 98%
08:00 +1°C° 0.1 mm 3 m/s 739 mmHg 98%
09:00 +2°C° 0.1 mm 2 m/s 740 mmHg 99%
10:00 +2°C° 0.1 mm 2 m/s 740 mmHg 99%
11:00 +2°C° 0 mm 2 m/s 740 mmHg 99%
12:00 +2°C° 0 mm 2 m/s 740 mmHg 98%
13:00 +3°C° 0 mm 2 m/s 741 mmHg 98%
14:00 +3°C° 0 mm 2 m/s 741 mmHg 98%
15:00 +3°C° 0 mm 2 m/s 741 mmHg 98%
16:00 +3°C° 0 mm 2 m/s 741 mmHg 98%
17:00 +3°C° 0 mm 2 m/s 741 mmHg 98%
18:00 +3°C° 0 mm 2 m/s 742 mmHg 98%
19:00 +4°C° 0 mm 1 m/s 742 mmHg 98%
20:00 +3°C° 0 mm 1 m/s 742 mmHg 98%
21:00 +3°C° 0 mm 1 m/s 742 mmHg 98%
22:00 +3°C° 0 mm 1 m/s 742 mmHg 99%
23:00 +4°C° 0 mm 1 m/s 742 mmHg 99%
Arată mai mult

Formular de consimțământ

Meteoprog și furnizorii noștri de servicii pot stoca și accesa date personale, precum cookies, identificatori de dispozitiv sau alte tehnologii similare pe dispozitivul dumneavoastră și procesa astfel de date pentru a personaliza conținutul și reclamele, dar și pentru a oferi caracteristici de social media și pentru a analiza traficul.

  • Stocarea și/sau accesarea informațiilor pe dispozitivul dumneavoastră

    Cookies, identificatori de dispozitiv sau alte informații pot fi stocate sau accesate pe dispozitiv în scopurile indicate mai sus.

  • Reclame și conținut personalizat, evaluarea reclamelor și a conținutului, informații despre audiențe și dezvoltarea produselor

    Reclamele și conținutul pot fi personalizate pe baza unui profil. Pot fi adăugate date suplimentare pentru a personaliza mai bine reclamele și conținutul. Performanța reclamelor și conținutului poate fi măsurată. Pot fi obținute informații despre utilizatorii care au văzut reclamele și conținutul. Aceste date pot fi utilizate pentru a dezvolta sau îmbunătăți experiența utilizatorilor, sistemele și software-ul.

Dând clic pe ‘Sunt de acord’, permiteți utilizarea cookie-urilor menționate, a identificatorilor de dispozitiv, balizelor web sau altor tehnologii similare. Setările pot fi modificate din browser-ul dispozitivului dumneavoastră.

În anumite scopuri, interesele legitime pot prima asupra consimțământului. Puteți citi mai multe informații în acest sens în Politica privind Confidențialitatea Datelor și Cookie.